Location: LewisvilleTX
(33.0462°N, 96.9942°W)
Time: 07:43:11
(UTC+00:00)

X-37B - Pass Details

Date: 06 December 2022
Orbit: 277 x 277 km, 45.0° (Epoch: 01 November)

Event Time Altitude Azimuth Distance (km) Brightness Sun altitude
Rises 00:57:50 0° 250° (WSW) 1,902 5.7 -19.9°
Reaches altitude 10° 00:59:48 10° 259° (W) 1,093 4.1 -20.3°
Enters shadow 01:01:14 26° 283° (WNW) 588 2.1 -20.5°
